

Wyoming Mesonet
Water Resources Data System and State Climate Office
SEO WACNet, UW USACE UMRB, USDA-ARS, BLM
| Wind | Soil | |||||||||||||||||||
| Temp | Precip | Speed | Dir | Gust | Dir | Humidity | Pressure | Solar | Snow | Temperature (Deg F) | Moisture (%) | |||||||||
| Date Time (MST) | (F) | (in) | (mph) | (deg) | (mph) | (deg) | (%) | (Mbars) | (w/m^2) | (in) | 5cm | 10cm | 20cm | 50cm | 1m | 5cm | 10cm | 20cm | 50cm | 1m |
| 2026-08-30 00:00:00 | 56.70 | 0.00 | 0.29 | 162 | 5.72 | 273 | 75.2 | 838.0 | 0.0 | 0.0 | 73.94 | 75.56 | 75.90 | 73.11 | 70.70 | 8.3% | 14.9% | 19.7% | 15.5% | 26.1% |
| 2026-08-30 01:00:00 | 53.01 | 0.00 | 1.85 | 142 | 6.21 | 300 | 85.3 | 839.0 | 0.0 | 0.0 | 72.68 | 74.66 | 75.56 | 73.17 | 70.70 | 8.3% | 14.7% | 19.8% | 15.5% | 26.1% |
| 2026-08-30 02:00:00 | 55.67 | 0.00 | 0.83 | 181 | 5.34 | 158 | 81.6 | 838.0 | 0.0 | 0.0 | 71.42 | 73.94 | 75.56 | 73.18 | 70.70 | 8.1% | 14.8% | 19.7% | 15.5% | 26.1% |
| 2026-08-30 03:00:00 | 52.25 | 0.00 | 0.00 | 0 | 4.35 | 140 | 85.8 | 838.0 | 0.0 | 0.0 | 70.70 | 73.04 | 75.56 | 73.27 | 70.70 | 8.1% | 14.8% | 19.5% | 15.5% | 26.1% |
| 2026-08-30 04:00:00 | 52.47 | 0.00 | 1.77 | 118 | 7.70 | 157 | 84.8 | 838.0 | 0.0 | 0.0 | 69.84 | 72.32 | 75.02 | 73.13 | 70.70 | 8.1% | 14.4% | 19.7% | 15.5% | 26.1% |
| 2026-08-30 05:00:00 | 53.26 | 0.00 | 1.15 | 278 | 7.08 | 147 | 85.6 | 838.0 | 0.0 | 0.0 | 69.26 | 71.78 | 75.00 | 73.18 | 70.70 | 8.2% | 14.6% | 19.6% | 15.5% | 26.1% |
| 2026-08-30 06:00:00 | 55.45 | 0.00 | 1.74 | 257 | 8.45 | 258 | 81.9 | 839.0 | 0.0 | 0.0 | 68.54 | 71.06 | 74.66 | 73.17 | 70.70 | 8.0% | 14.4% | 19.7% | 15.5% | 26.1% |
| 2026-08-30 07:00:00 | 59.97 | 0.00 | 2.90 | 116 | 4.97 | 145 | 73.1 | 840.0 | 0.0 | 0.0 | 68.54 | 70.72 | 74.37 | 73.18 | 70.70 | 8.1% | 14.3% | 19.4% | 15.5% | 26.1% |
| 2026-08-30 08:00:00 | 64.18 | 0.00 | 3.18 | 122 | 8.20 | 132 | 58.4 | 839.0 | 0.0 | 0.0 | 68.90 | 70.70 | 74.30 | 73.11 | 70.70 | 8.3% | 14.4% | 19.4% | 15.5% | 26.1% |
| 2026-08-30 09:00:00 | 73.47 | 0.00 | 5.06 | 2 | 8.57 | 347 | 42.5 | 839.0 | 0.0 | 0.0 | 69.98 | 71.06 | 73.94 | 73.11 | 70.70 | 8.1% | 14.4% | 19.6% | 15.5% | 26.1% |
| 2026-08-30 10:00:00 | 75.25 | 0.00 | 2.99 | 60 | 12.42 | 345 | 40.8 | 839.0 | 0.0 | 0.0 | 72.68 | 72.32 | 73.94 | 73.06 | 70.70 | 8.5% | 14.3% | 19.5% | 15.5% | 26.1% |
| 2026-08-30 11:00:00 | 76.55 | 0.00 | 12.42 | 303 | 21.74 | 316 | 40.0 | 840.0 | 0.0 | 0.0 | 76.33 | 74.30 | 73.40 | 73.04 | 70.70 | 8.8% | 14.6% | 19.6% | 15.5% | 26.1% |
| 2026-08-30 12:00:00 | 64.45 | 0.00 | 15.91 | 316 | 33.67 | 335 | 50.2 | 843.0 | 0.0 | 0.0 | 78.08 | 76.46 | 73.40 | 73.04 | 70.70 | 8.9% | 15.1% | 19.6% | 15.6% | 26.1% |
| 2026-08-30 13:00:00 | 61.99 | 0.00 | 8.96 | 325 | 29.57 | 327 | 59.7 | 842.0 | 0.0 | 0.0 | 78.08 | 76.82 | 73.40 | 73.04 | 70.70 | 8.9% | 15.0% | 19.6% | 15.7% | 26.1% |
| 2026-08-30 14:00:00 | 72.12 | 0.00 | 3.52 | 88 | 12.67 | 37 | 49.6 | 840.0 | 0.0 | 0.0 | 78.08 | 77.18 | 73.40 | 73.04 | 70.70 | 9.0% | 14.8% | 19.6% | 15.7% | 26.1% |
| 2026-08-30 15:00:00 | 73.47 | 0.00 | 4.70 | 302 | 9.19 | 300 | 40.7 | 840.0 | 0.0 | 0.0 | 80.06 | 78.62 | 73.94 | 73.04 | 70.70 | 9.1% | 15.2% | 19.5% | 15.7% | 26.1% |
| 2026-08-30 16:00:00 | 75.70 | 0.00 | 11.00 | 352 | 15.90 | 348 | 34.6 | 840.0 | 0.0 | 0.0 | 82.04 | 79.52 | 73.94 | 73.04 | 70.70 | 9.2% | 15.3% | 19.6% | 15.7% | 26.1% |
| 2026-08-30 17:00:00 | 72.28 | 0.00 | 10.39 | 326 | 18.77 | 348 | 35.1 | 841.0 | 0.0 | 0.0 | 82.40 | 80.06 | 74.08 | 73.04 | 70.70 | 9.1% | 15.2% | 19.4% | 15.7% | 26.1% |
| 2026-08-30 18:00:00 | 69.51 | 0.00 | 6.69 | 321 | 16.27 | 339 | 42.4 | 841.0 | 0.0 | 0.0 | 82.04 | 80.06 | 74.30 | 73.04 | 70.70 | 8.9% | 15.2% | 19.5% | 15.7% | 26.1% |
| 2026-08-30 19:00:00 | 63.12 | 0.00 | 2.52 | 312 | 9.57 | 311 | 52.5 | 842.0 | 0.0 | 0.0 | 80.28 | 79.16 | 74.66 | 73.04 | 70.70 | 8.9% | 15.5% | 19.7% | 15.7% | 26.1% |
| 2026-08-30 20:00:00 | 59.86 | 0.00 | 0.00 | 0 | 3.85 | 335 | 57.2 | 843.0 | 0.0 | 0.0 | 78.08 | 78.08 | 74.66 | 73.04 | 70.70 | 8.7% | 15.2% | 19.5% | 15.7% | 26.1% |
| 2026-08-30 21:00:00 | 54.54 | 0.00 | 0.48 | 63 | 4.10 | 112 | 59.7 | 843.0 | 0.0 | 0.0 | 75.94 | 76.82 | 74.88 | 73.04 | 70.70 | 8.9% | 15.0% | 19.6% | 15.7% | 26.1% |
| 2026-08-30 22:00:00 | 56.50 | 0.00 | 5.70 | 133 | 9.07 | 136 | 66.7 | 843.0 | 0.0 | 0.0 | 74.30 | 75.56 | 75.02 | 73.04 | 70.70 | 8.5% | 14.9% | 19.6% | 15.7% | 26.1% |
| 2026-08-30 23:00:00 | 52.84 | 0.00 | 1.73 | 153 | 13.54 | 146 | 71.1 | 842.0 | 0.0 | 0.0 | 72.68 | 74.30 | 75.02 | 73.04 | 70.70 | 8.3% | 14.6% | 19.6% | 15.7% | 26.1% |